Location: Orson Pratt Observatory
(40.2472°N, 111.6506°W)
Time: 20:05:33
(UTC-06:00)

SEEDS - Visible Passes

Search period start: 25 March 2019 00:00
Search period end: 04 April 2019 00:00
Orbit: 586 x 605 km, 97.5° (Epoch: 25 March)

Date Brightness Start Highest point End Pass type
(mag) Time Alt. Az. Time Alt. Az. Time Alt. Az.
28 Mar ? 20:11:46 10° SW 20:14:16 15° W 20:16:45 10° NW visible
29 Mar ? 20:22:33 10° WSW 20:24:04 12° W 20:25:36 10° WNW visible
31 Mar ? 06:39:37 10° ENE 06:41:13 12° E 06:42:50 10° ESE visible
